Regional Weather Roundup
Issued by NWS Newport/Morehead, NC

Current Version | Previous Version | Graphics & Text | Print | Product List | Glossary On
Versions: 1 2 3 4 5 6 7 8 9 10 11 12 13 14 15 16 17 18 19 20 21 22 23 24 25 26 27 28 29 30 31 32 33 34 35 36 37 38 39 40 41 42 43 44 45 46 47 48 49 50
000 ASUS42 KMHX 171925 RWRMHX WEATHER ROUNDUP FOR EASTERN NORTH CAROLINA NATIONAL WEATHER SERVICE NEWPORT/MOREHEAD CITY NC 200 PM EST SUN DEC 17 2017 NOTE: "FAIR" INDICATES FEW OR NO CLOUDS BELOW 12,000 FEET WITH NO SIGNIFICANT WEATHER AND/OR OBSTRUCTIONS TO VISIBILITY NCZ015>017-031-032-045>047-102-103-172000- NORTH COAST CITY SKY/WX TMP DP RH WIND PRES REMARKS EDENTON CLOUDY 52 32 46 SW3 30.22F ELIZABETH CITY MOSUNNY 51 35 54 S8 30.22F KITTY HAWK CLOUDY 49 29 46 CALM 30.22F MANTEO CLOUDY 50 36 58 SW7 30.24F $$ NCZ045>047-081-094-103-104-172000- CENTRAL COAST CITY SKY/WX TMP DP RH WIND PRES REMARKS FRISCO PTSUNNY 51 39 63 NW6 30.24F $$ NCZ095-097-098-100-101-172000- SOUTHERN COAST CITY SKY/WX TMP DP RH WIND PRES REMARKS BEAUFORT MOSUNNY 53 38 56 S7 30.24F CEDAR ISLAND NOT AVBL JACKSONVILLE SUNNY 56 33 42 E9 30.22F PINEY ISLAND N/A N/A N/A N/A SW8 30.22F WILMINGTON SUNNY 62 41 46 SW7 30.23F $$ NCZ011>013-027>030-043-044-078>080-089-090>093-098-172000- COASTAL PLAIN CITY SKY/WX TMP DP RH WIND PRES REMARKS AHOSKIE CLOUDY 47 32 56 CALM 30.22F CLINTON PTSUNNY 56 33 40 S3 30.21F ELIZABETHTOWN NOT AVBL GOLDSBORO CLOUDY 55 29 38 SW7 30.19F GREENVILLE MOSUNNY 52 30 43 SW5 30.22F HAVELOCK SUNNY 58 36 43 SW8 30.22F KENANSVILLE MOSUNNY 57 32 38 S3 30.22F KINSTON PTSUNNY 55 30 38 SW6 30.22F NEW BERN SUNNY 56 31 38 SW6 30.22F RICHLANDS CLOUDY 58 34 40 SW9 30.22F ROCKY MOUNT CLOUDY 50 31 48 S5 30.20F WASHINGTON MOSUNNY 54 30 40 SW5 30.22F WHITEVILLE SUNNY 60 36 40 SW9 30.21F $$ AMZ130-135-150-152-154-156-158-170-250-252-270-ANZ085-086-088-633-658-670-172000- MARINE OBSERVATIONS STATION/POSITION TIME TEMP WIND PRES WAVE SWELL AIR SEA DIR/SP/G HT/PER HT/PER (UTC) (F) (DEG/KT/KT) (MB) (FT/S) (FT/S) CHESAPEAKE LIGHT NOT AVBL 64 E VA BEACH 1850 52 60 230/ 8/ 12 1024.1 1/10 2/10 DUCK 1900 48 52 230/ 4/ 5 1023.2 2 E DUCK 1900 54 N/A 1/10 OREGON INLET 1900 46 43 190/ 9/ 10 1024.0 13E OREGON INLT 1848 60 N/A 1/10 2/10 HATTERAS CG 1900 48 53 290/ 5/ 5 1023.6 DIAMOND BUOY 1900 59 72 240/ 12/ 17 1024.2 CAPE LOOKOUT 1900 320/ 1/ 3 1024.1 BEAUFORT LAB 1900 53 49 190/ 4/ 5 1023.5 30 SE NEW RVR IN 1908 58 63 230/ 2/ 4 1023.7 30 SE NEW RVR IN 1900 63 N/A 2/10 27 SE WRIGHTSVLE 1908 56 62 280/ 2/ 6 1024.0 5 SE WRIGHTSVLE 1908 55 55 160/ 2/ 4 1023.9 225 S CAPE HAT 1850 65 74 170/ 6/ 8 1023.9 3/10 3/10 41 SE CHARLESTON 1900 64 72 CALM / 2 1023.4 $$

USA.gov is the U.S. government's official web portal to all federal, state and local government web resources and services.